This demonstration page uses our WeatherBlox Daily Observations layout. Learn more.

Hourly Observations for September 9, 2019

Temp ( °F °C ) Dew Point ( °F °C ) Humidity (%) Winds ( mph kmh ) Pressure ( in mb ) Visibility ( mi km ) Precip ( " mm )
12:15 am 00:15 Cloudy with Mist and Fog 69 20.5 69 20.5 100 100 E 12 19 29.83 1010 5 8.0467 0 0
12:35 am 00:35 Cloudy with Mist and Fog 69 20.5 69 20.5 100 100 ESE 12 19 29.82 1010 5 8.0467 0 0
12:55 am 00:55 Cloudy with Mist and Fog 69 20.5 69 20.5 100 100 ESE 14 22 29.82 1010 5 8.0467 0 0
1:15 am 01:15 Cloudy with Mist and Fog 69 20.6 69 20.6 100 100 ESE 12 19 29.82 1010 5 8.0467 0 0
1:35 am 01:35 Cloudy with Mist and Fog 69 20.8 69 20.8 100 100 ESE 9 15 29.83 1010 5 8.0467 0 0
1:55 am 01:55 Cloudy with Mist and Fog 69 20.8 69 20.8 100 100 ESE 12 19 29.81 1010 4 6.43736 0 0
2:15 am 02:15 Cloudy with Mist and Fog 70 21 70 21 100 100 ESE 12 19 29.81 1009 5 8.0467 0 0
2:35 am 02:35 Cloudy with Mist and Fog 70 21 70 21 100 100 ESE 12 19 29.8 1009 5 8.0467 0 0
2:55 am 02:55 Cloudy 70 21.1 70 21.1 100 100 SE 8 13 29.8 1009 7 11.26538 0 0
3:15 am 03:15 Cloudy 70 21.1 70 21 99 99 SSE 6 9 29.8 1009 7 11.26538 0 0
3:35 am 03:35 Cloudy with Nearby Thunderstorms 70 21.1 70 21.1 100 100 SSE 7 11 29.81 1009 7 11.26538 0 0
3:55 am 03:55 Cloudy with Mist and Fog 70 21 70 21 100 100 S 7 11 29.81 1009 5 8.0467 0 0
4:15 am 04:15 Cloudy with Light Rain 70 21 70 21 100 100 S 6 9 29.81 1009 5 8.0467 0 0
4:35 am 04:35 Cloudy with Light Rain 70 20.9 70 20.9 100 100 S 6 9 29.8 1009 4 6.43736 0.02 0.508
4:55 am 04:55 Cloudy with Rain 69 20.8 69 20.8 100 100 S 7 11 29.79 1009 5 8.0467 0.03 0.762
5:15 am 05:15 Cloudy with Nearby Thunderstorms 69 20.6 69 20.5 99 99 SSW 15 24 29.8 1009 7 11.26538 0.02 0.508
5:35 am 05:35 Cloudy with Rain 68 20.2 67 19.5 96 96 SSW 15 24 29.79 1009 5 8.0467 0.09 2.286
5:55 am 05:55 Cloudy with Rain 68 20 67 19.2 95 95 SSW 20 31 29.8 1009 5 8.0467 0.16 4.064
6:15 am 06:15 Cloudy 67 19.5 65 18.6 95 95 SW 10 17 29.8 1009 7 11.26538 0.05 1.27
6:35 am 06:35 Cloudy with Light Rain 67 19.3 65 18.6 96 96 W 9 15 29.82 1010 10 16.0934 0.06 1.524
6:55 am 06:55 Cloudy with Light Rain 67 19.3 64 17.9 92 92 WNW 8 13 29.79 1009 10 16.0934 0.08 2.032
7:15 am 07:15 Cloudy 67 19.5 64 17.5 88 88 SSW 3 6 29.8 1009 10 16.0934 0 0
7:35 am 07:35 Cloudy with Rain 67 19.5 63 17.3 87 87 W 3 6 29.78 1009 10 16.0934 0.03 0.762
7:55 am 07:55 Cloudy 66 18.9 64 17.9 94 94 W 3 6 29.81 1009 10 16.0934 0.04 1.016
8:15 am 08:15 Cloudy with Light Rain 66 19 64 18 94 94 Calm 29.82 1010 10 16.0934 0 0
8:35 am 08:35 Cloudy with Light Rain 66 19.1 66 18.7 98 98 SE 5 7 29.8 1009 10 16.0934 0 0
8:55 am 08:55 Cloudy with Rain 66 19 65 18.3 96 96 SE 7 11 29.81 1009 10 16.0934 0.01 0.254
9:15 am 09:15 Cloudy with Light Thunderstorms 66 18.8 65 18.4 98 98 SE 8 13 29.8 1009 10 16.0934 0 0
9:35 am 09:35 Mostly Cloudy 67 19.2 66 18.7 97 97 S 5 7 29.81 1010 10 16.0934 0.01 0.254
9:55 am 09:55 Mostly Cloudy 67 19.3 66 19 98 98 SSE 12 19 29.82 1010 10 16.0934 0.02 0.508
10:15 am 10:15 Cloudy with Light Rain 67 19.3 66 19 98 98 SSE 20 31 29.77 1008 7 11.26538 0.02 0.508
10:35 am 10:35 Partly Cloudy with Light Rain 67 19.5 66 19.1 98 98 SSE 14 22 29.78 1009 10 16.0934 0.02 0.508
10:55 am 10:55 Sunny 67 19.6 66 19.1 97 97 SE 14 22 29.76 1008 10 16.0934 0.02 0.508
11:15 am 11:15 Sunny 70 21.1 69 20.5 96 96 SSE 13 20 29.77 1008 10 16.0934 0 0
11:35 am 11:35 Partly Cloudy 71 21.5 69 20.4 93 93 SSE 13 20 29.77 1008 10 16.0934 0 0
11:55 am 11:55 Partly Cloudy 73 23 69 20.7 87 87 S 14 22 29.75 1008 10 16.0934 0 0
12:15 pm 12:15 Partly Cloudy 74 23.2 68 20.2 83 83 S 14 22 29.75 1008 10 16.0934 0 0
12:35 pm 12:35 Partly Cloudy 73 22.8 68 20.1 85 85 S 14 22 29.76 1008 10 16.0934 0 0
12:55 pm 12:55 Partly Cloudy 73 22.6 68 19.9 85 85 S 14 22 29.77 1008 10 16.0934 0 0
1:15 pm 13:15 Partly Cloudy 73 22.9 67 19.7 82 82 S 14 22 29.76 1008 10 16.0934 0 0
1:35 pm 13:35 Partly Cloudy 76 24.2 69 20.4 79 79 S 15 24 29.75 1008 10 16.0934 0 0
1:55 pm 13:55 Mostly Cloudy 76 24.5 69 20.6 79 79 S 12 19 29.75 1007 10 16.0934 0 0
2:15 pm 14:15 Mostly Cloudy 76 24.6 69 20.5 78 78 S 12 19 29.74 1007 10 16.0934 0 0
2:35 pm 14:35 Partly Cloudy 78 25.3 69 20.6 75 75 SSW 10 17 29.73 1007 10 16.0934 0 0
2:55 pm 14:55 Partly Cloudy 79 26 69 20.4 71 71 S 12 19 29.73 1007 10 16.0934 0 0
3:15 pm 15:15 Partly Cloudy 79 25.9 69 20.4 72 72 SSW 15 24 29.72 1006 10 16.0934 0 0
3:35 pm 15:35 Partly Cloudy 80 26.5 69 20.7 71 71 S 13 20 29.72 1006 10 16.0934 0 0
3:55 pm 15:55 Partly Cloudy 81 27.2 69 20.8 68 68 S 10 17 29.7 1006 10 16.0934 0 0
4:15 pm 16:15 Sunny 82 27.8 69 20.7 65 65 S 10 17 29.69 1005 10 16.0934 0 0
4:35 pm 16:35 Partly Cloudy 82 27.6 70 21 67 67 S 9 15 29.69 1005 10 16.0934 0 0
4:55 pm 16:55 Mostly Cloudy 82 27.5 69 20.7 66 66 S 9 15 29.69 1005 10 16.0934 0 0
5:35 pm 17:35 Mostly Cloudy 82 28 70 21.1 66 66 S 6 9 29.66 1005 10 16.0934 0 0
5:55 pm 17:55 Cloudy 82 27.7 70 20.9 67 67 S 7 11 29.68 1005 10 16.0934 0 0
6:15 pm 18:15 Mostly Cloudy 82 27.7 71 21.5 69 69 SSE 5 7 29.69 1005 10 16.0934 0 0
6:35 pm 18:35 Partly Cloudy 81 27.3 70 21.1 69 69 S 6 9 29.68 1005 10 16.0934 0 0
6:55 pm 18:55 Partly Cloudy 80 26.8 69 20.7 69 69 S 7 11 29.69 1006 10 16.0934 0 0
7:15 pm 19:15 Mostly Cloudy 80 26.4 70 21 72 72 S 7 11 29.7 1006 10 16.0934 0 0
7:35 pm 19:35 Partly Cloudy 78 25.3 70 21 77 77 SSE 5 7 29.7 1006 10 16.0934 0 0
7:55 pm 19:55 Partly Cloudy 76 24.6 70 21.1 81 81 SE 6 9 29.71 1006 10 16.0934 0 0
8:15 pm 20:15 Cloudy 76 24.2 70 21 82 82 SE 6 9 29.72 1007 10 16.0934 0 0
8:35 pm 20:35 Partly Cloudy 74 23.5 70 21 86 86 SE 6 9 29.72 1006 10 16.0934 0 0
8:55 pm 20:55 Clear 73 22.7 70 21 90 90 SE 6 9 29.74 1007 10 16.0934 0 0
9:15 pm 21:15 Clear 72 22.2 69 20.8 92 92 SSE 6 9 29.74 1007 10 16.0934 0 0
9:35 pm 21:35 Clear 72 22.3 69 20.7 91 91 SSE 5 7 29.75 1007 10 16.0934 0 0
9:55 pm 21:55 Clear 73 22.5 69 20.7 90 90 SSE 7 11 29.76 1008 10 16.0934 0 0
10:15 pm 22:15 Clear 73 22.8 69 20.7 88 88 SSE 7 11 29.75 1008 10 16.0934 0 0
10:35 pm 22:35 Clear 73 22.8 69 20.6 87 87 S 7 11 29.76 1008 10 16.0934 0 0
10:55 pm 22:55 Partly Cloudy 73 22.5 69 20.6 89 89 SSE 5 7 29.76 1008 10 16.0934 0 0
11:15 pm 23:15 Clear 72 22 69 20.6 92 92 SE 6 9 29.76 1008 10 16.0934 0 0
11:35 pm 23:35 Clear 71 21.8 69 20.5 92 92 SSE 3 6 29.77 1008 10 16.0934 0 0
11:55 pm 23:55 Clear 71 21.8 69 20.5 92 92 S 5 7 29.78 1009 10 16.0934 0 0

Powered by AerisWeather